Regional Weather Roundup
Issued by NWS

Home | Current Version | Previous Version | Text Only | Print | Product List | Glossary Off
Versions: 1 2 3 4 5 6 7 8 9 10 11 12 13 14 15 16 17 18 19 20 21 22 23 24 25 26 27 28 29 30 31 32 33 34 35 36 37 38 39 40 41 42 43 44 45 46 47 48 49 50

000
ASUS43 KMKX 040600
RWRWI

WISCONSIN REGIONAL WEATHER ROUNDUP
NATIONAL WEATHER SERVICE MILWAUKEE/SULLIVAN WI
100 AM CDT WED MAY 04 2016

NOTE: "FAIR" INDICATES FEW OR NO CLOUDS BELOW 12,000 FEET WITH NO
SIGNIFICANT WEATHER AND/OR OBSTRUCTIONS TO VISIBILITY.

WIZ001-002-006>008-014>016-023>028-040700-
NORTHWEST WISCONSIN

CITY           SKY/WX    TMP DP  RH WIND       PRES   REMARKS
SUPERIOR ARPT  CLEAR     47  32  55 N9        29.88R
ASHLAND        PTCLDY    36  34  92 CALM      29.87R
6HR MIN TEMP:  36; 6HR MAX TEMP:  57;

HAYWARD        PTCLDY    45  32  60 NE13      29.86R
6HR MIN TEMP:  45; 6HR MAX TEMP:  63;

SIREN          CLEAR     50  32  49 NE9G17    29.87R
CUMBERLAND     CLEAR     46  30  53 N13G18    29.83R
RICE LAKE      CLEAR     51  32  49 N17       29.84R
CHETEK         CLEAR     51  34  53 N14G25    29.82R
LADYSMITH      CLEAR     46  35  65 N10       29.82R
EAU CLAIRE     NOT AVBL
MENOMONIE      CLEAR     51  38  60 N8        29.80R
NEW RICHMOND   PTCLDY    53  32  45 NE15G25   29.83R
OSCEOLA        PTCLDY    53  33  47 NE15      29.87R
$$

WIZ003>005-009-010-017-018-040700-
NORTH CENTRAL WISCONSIN

CITY           SKY/WX    TMP DP  RH WIND       PRES   REMARKS
MANITOWISH WTR CLOUDY    40  38  91 N9        29.80S WCI  35
ARBOR VITAE    CLOUDY    42  37  84 N10G16    29.80R
WOODRUFF       CLOUDY    42  37  84 N10G16    29.80R
RHINELANDER    LGT RAIN  42  36  79 N8G18     29.78R
6HR MIN TEMP:  38; 6HR MAX TEMP:  51; 6HR PCP: TRACE;

EAGLE RIVER    CLOUDY    40  35  81 N8        29.78R WCI  35
LAND O LAKES   CLOUDY    41  36  82 N10       29.79S
PHILLIPS       CLOUDY    44  37  76 N18G26    29.80R
6HR MIN TEMP:  40; 6HR MAX TEMP:  53; 6HR PCP:  0.01;

TOMAHAWK       PTCLDY    39  38  97 N3        29.77R
MEDFORD        CLEAR     40  39  93 N7        29.75R
MERRILL        CLEAR    N/A N/A N/A N8        29.76R
$$

WIZ029-030-035-036-043>047-040700-
CENTRAL WISCONSIN

CITY           SKY/WX    TMP DP  RH WIND       PRES   REMARKS
WAUSAU         CLEAR     44  42  93 N6        29.72R
6HR MIN TEMP:  44; 6HR MAX TEMP:  54; 6HR PCP:  0.07;

MOSINEE        CLEAR     41  41 100 N6        29.74R
MARSHFIELD     CLEAR     46  42  86 N8        29.73R
6HR MIN TEMP:  45; 6HR MAX TEMP:  55; 6HR PCP:  0.07;

STEVENS POINT  CLEAR     41  41 100 NW6       29.72S
WAUPACA        CLEAR     45  44  95 N3        29.71S FOG
6HR MIN TEMP:  45; 6HR MAX TEMP:  63; 6HR PCP:  0.07;

WAUTOMA        CLEAR     46  44  93 N7        29.70S
6HR MIN TEMP:  45; 6HR MAX TEMP:  60; 6HR PCP:  0.12;

WISC RAPIDS    CLEAR     43  41  93 N7        29.74R
6HR MIN TEMP:  42; 6HR MAX TEMP:  62; 6HR PCP:  0.17;

CAMP DOUGLAS   FOG       39  39 100 NW3       29.72R VSB 1/2
$$

WIZ011>013-019>022-031-037>040-048>050-040700-
NORTHEAST WISCONSIN

CITY           SKY/WX    TMP DP  RH WIND       PRES   REMARKS
ANTIGO         PTCLDY    41  39  93 N10       29.73R
SHAWANO        CLEAR     47  43  85 N15       29.72R
6HR MIN TEMP:  46; 6HR MAX TEMP:  55; 6HR PCP:  0.11;

OCONTO         MOCLDY    46  46 100 N7        29.70S
STURGEON BAY   CLOUDY    45  36  70 N16G23    29.72R
6HR MIN TEMP:  45; 6HR MAX TEMP:  52;

GREEN BAY      LGT RAIN  47  43  86 N13       29.70R
6HR MIN TEMP:  46; 6HR MAX TEMP:  58; 6HR PCP:  0.26;

MANITOWOC      NOT AVBL
APPLETON       CLOUDY    45  45 100 N10       29.67S
CLINTONVILLE   CLEAR     45  43  93 N7        29.70S
OSHKOSH        CLOUDY    46  44  93 N7        29.67F
6HR MIN TEMP:  46; 6HR MAX TEMP:  62; 6HR PCP:  0.36;

$$

WIZ032>034-041-042-053>061-040700-
SOUTHWEST WISCONSIN

CITY           SKY/WX    TMP DP  RH WIND       PRES   REMARKS
LA CROSSE      CLEAR     48  45  89 N7        29.74R
6HR MIN TEMP:  48; 6HR MAX TEMP:  69; 6HR PCP:  0.19;

SPARTA         FOG       41  41 100 N3        29.74R VSB 1
VIROQUA        CLEAR     45  45 100 N6        29.71R
BOSCOBEL       FOG       45  44  97 CALM      29.71R VSB 1/4
6HR MIN TEMP:  45; 6HR MAX TEMP:  68; 6HR PCP:  0.26;

PRAIRIE DU CHI PTCLDY    48  46  95 CALM      29.71R
PLATTEVILLE    CLOUDY    48  47  95 W3        29.70R
$$

WIZ056-057-062-063-064-067-068-040700-
SOUTH CENTRAL WISCONSIN

CITY           SKY/WX    TMP DP  RH WIND       PRES   REMARKS
REEDSBURG      CLOUDY    46  46 100 NW3       29.69R
BARABOO/DELLS  CLOUDY    47  45  93 NW6       29.69R
LONE ROCK      NOT AVBL
MINERAL POINT  PTCLDY    46  46 100 CALM      29.69R
MADISON        CLOUDY    46  45  96 NW3       29.67R FOG
6HR MIN TEMP:  46; 6HR MAX TEMP:  64; 6HR PCP:  0.07;

MIDDLETON      CLOUDY    46  45  97 CALM      29.68R
WATERTOWN      CLOUDY    47  47 100 CALM      29.65F
MONROE         CLOUDY    48  45  87 CALM      29.66R
JANESVILLE     RAIN      50  48  93 SW5       29.66F
$$

WIZ051-052-058>065-066-070>072-040700-
SOUTHEAST WISCONSIN

CITY           SKY/WX    TMP DP  RH WIND       PRES   REMARKS
MILWAUKEE      LGT RAIN  50  46  86 NE10      29.64F
6HR MIN TEMP:  50; 6HR MAX TEMP:  65; 6HR PCP: TRACE;

WAUKESHA       CLOUDY    46  45  93 CALM      29.65F
MILWAUKEE/TIMM CLOUDY    48  45  87 N5        29.64F
RACINE         CLOUDY    50  46  86 N13       29.65F
6HR MIN TEMP:  50; 6HR MAX TEMP:  65; 6HR PCP:  0.03;

BURLINGTON     RAIN      48  47  95 CALM      29.65F
6HR MIN TEMP:  48; 6HR MAX TEMP:  62; 6HR PCP:  0.11;

KENOSHA        LGT RAIN  52  46  80 N8        29.64F
6HR MIN TEMP:  52; 6HR MAX TEMP:  63; 6HR PCP:  0.01;

FOND DU LAC    MOCLDY    48  46  93 N7        29.67R
6HR MIN TEMP:  47; 6HR MAX TEMP:  64; 6HR PCP:  0.10;

SHEBOYGAN      MOCLDY    48  46  93 N5        29.66S
6HR MIN TEMP:  47; 6HR MAX TEMP:  63; 6HR PCP:  0.23;

WEST BEND      CLOUDY    46  45  93 CALM      29.65S
JUNEAU         CLOUDY    46  46  97 CALM      29.67S
$$

LSZ147-162-040700-
LAKE SUPERIOR

STATION/POSITION TIME  TEMP    WIND        PRES    WAVE
                       AIR SEA DIR/SP/G            HT/PER
                 (UTC) (F)     (DEG/KT/KT) (MB)    (FT/S)
W MID LAKE BUOY  0450   41 37  340/  2/  4 1010.4R   2/ 4
DEVILS ISLAND    0500   46      40/  8/  9 1011.3R
SAXON HARBOR     0500   42      40/  6/  9 1010.2R
$$

LMZ867-665-643>646-040700-
LAKE MICHIGAN

STATION/POSITION TIME  TEMP    WIND        PRES    WAVE
                       AIR SEA DIR/SP/G            HT/PER
                 (UTC) (F)     (DEG/KT/KT) (MB)    (FT/S)
CHAMBERS ISLAND  0500   44     360/ 13/ 16 1006.1R
N MID LAKE BUOY  0450   43 39  310/ 12/ 14 1004.8F   2/ 5
NORTHPORT PIER   0500   43     350/ 17/ 22 1005.8R
ALGOMA LAKESHORE 0515           10/ 10/ 13   N/A
KEWAUNEE LAKESHO 0500   48     320/  5/  7 1004.3S
SHEBOYGAN LAKESH 0500   45      20/  8/  9 1004.7F
PORT WASHINGTON  0520   49      70/  6/ 17 1004.1F
S MID LAKE BUOY  0450   46 41  190/ 12/ 12 1003.1F   1/ 3
KENOSHA   LAKESH 0500   60     220/ 11/ 15 1002.7F
$$

TC  - TEMPERATURE IN CELSIUS
VSB - VISIBILITY IN STATUTE MILES
WCI - WIND CHILL INDEX
HX  - HEAT INDEX





USA.gov is the U.S. government's official web portal to all federal, state and local government web resources and services.